VOZ898 YSSY-YMML

Flight info

Callsign VOZ898
Flight time N/A
Altitude 32000
Route WOL H65 RAZZI Q29 LIZZI
Aircraft E190/M-VGDW/C

Departure

Time 2026-04-24 16:54
Airport Sydney Kingsford Smith International Airport (YSSY)

Arrival

Time N/A
Airport Melbourne Airport (YMML)
Time Latitude Longitude Altitude Speed Heading
2026-04-24 16:35 -33.93798 151.16944 32 ft 0 kts 254°
2026-04-24 16:41 -33.93794 151.16961 32 ft 3 kts 253°
2026-04-24 16:41 -33.93787 151.16984 32 ft 3 kts 251°
2026-04-24 16:41 -33.93780 151.17007 32 ft 3 kts 247°
2026-04-24 16:42 -33.93772 151.17029 32 ft 3 kts 239°
2026-04-24 16:42 -33.93760 151.17047 32 ft 3 kts 212°
2026-04-24 16:42 -33.93747 151.17051 32 ft 1 kts 168°
2026-04-24 16:42 -33.93742 151.17050 32 ft 0 kts 168°
2026-04-24 16:44 -33.93752 151.17052 32 ft 3 kts 168°
2026-04-24 16:45 -33.93777 151.17059 32 ft 5 kts 168°
2026-04-24 16:45 -33.93814 151.17068 32 ft 6 kts 168°
2026-04-24 16:45 -33.93862 151.17080 32 ft 8 kts 168°
2026-04-24 16:45 -33.93922 151.17096 32 ft 10 kts 168°
2026-04-24 16:46 -33.93982 151.17140 32 ft 11 kts 111°
2026-04-24 16:46 -33.94001 151.17225 32 ft 11 kts 146°
2026-04-24 16:46 -33.94078 151.17252 32 ft 12 kts 168°
2026-04-24 16:46 -33.94159 151.17272 32 ft 14 kts 168°
2026-04-24 16:47 -33.94214 151.17286 32 ft 14 kts 168°
2026-04-24 16:47 -33.94318 151.17314 32 ft 15 kts 167°
2026-04-24 16:47 -33.94427 151.17343 32 ft 17 kts 168°
2026-04-24 16:47 -33.94543 151.17373 32 ft 17 kts 168°
2026-04-24 16:48 -33.94665 151.17405 32 ft 18 kts 168°
2026-04-24 16:48 -33.94792 151.17438 32 ft 19 kts 168°
2026-04-24 16:48 -33.94925 151.17473 32 ft 20 kts 168°
2026-04-24 16:48 -33.95062 151.17509 32 ft 20 kts 168°
2026-04-24 16:49 -33.95201 151.17543 32 ft 21 kts 168°
2026-04-24 16:49 -33.95345 151.17580 32 ft 21 kts 168°
2026-04-24 16:49 -33.95484 151.17619 32 ft 20 kts 171°
2026-04-24 16:49 -33.95620 151.17651 32 ft 20 kts 167°
2026-04-24 16:50 -33.95709 151.17675 32 ft 19 kts 167°
2026-04-24 16:50 -33.95880 151.17720 32 ft 19 kts 167°
2026-04-24 16:50 -33.96006 151.17753 32 ft 18 kts 169°
2026-04-24 16:50 -33.96129 151.17784 32 ft 18 kts 168°
2026-04-24 16:51 -33.96250 151.17815 32 ft 18 kts 168°
2026-04-24 16:51 -33.96329 151.17835 32 ft 17 kts 168°
2026-04-24 16:51 -33.96428 151.17885 32 ft 14 kts 118°
2026-04-24 16:51 -33.96425 151.17994 32 ft 13 kts 77°
2026-04-24 16:52 -33.96364 151.18049 32 ft 12 kts 353°
2026-04-24 16:52 -33.96328 151.18040 32 ft 0 kts 347°
2026-04-24 16:52 -33.96327 151.18040 32 ft 0 kts 347°
2026-04-24 16:53 -33.96226 151.18013 32 ft 46 kts 348°
2026-04-24 16:53 -33.95684 151.17873 32 ft 112 kts 348°
2026-04-24 16:53 -33.94727 151.17627 33 ft 167 kts 348°
2026-04-24 16:54 -33.93461 151.17313 218 ft 201 kts 349°
2026-04-24 16:54 -33.92004 151.17028 624 ft 218 kts 351°
2026-04-24 16:54 -33.90529 151.16719 873 ft 218 kts 348°
2026-04-24 16:54 -33.89062 151.16241 701 ft 218 kts 341°
2026-04-24 16:55 -33.87805 151.15323 647 ft 211 kts 311°
2026-04-24 16:55 -33.87197 151.13724 826 ft 211 kts 285°
2026-04-24 16:55 -33.86876 151.12002 1207 ft 212 kts 279°
2026-04-24 16:55 -33.86775 151.10232 1625 ft 214 kts 268°
2026-04-24 16:56 -33.86818 151.08438 2028 ft 215 kts 273°
2026-04-24 16:56 -33.86598 151.06654 2466 ft 218 kts 280°
2026-04-24 16:56 -33.86350 151.04850 2931 ft 219 kts 278°
2026-04-24 16:56 -33.86124 151.02986 3457 ft 233 kts 278°
2026-04-24 16:57 -33.85938 151.00996 3970 ft 244 kts 270°
2026-04-24 16:57 -33.86260 150.98977 4492 ft 249 kts 253°
2026-04-24 16:57 -33.86609 150.96915 4992 ft 254 kts 267°
2026-04-24 16:57 -33.86569 150.94779 5507 ft 257 kts 274°
2026-04-24 16:58 -33.86401 150.92622 6010 ft 260 kts 276°
2026-04-24 16:58 -33.86181 150.90457 6512 ft 262 kts 277°
2026-04-24 16:58 -33.85944 150.88302 7007 ft 264 kts 277°
2026-04-24 16:58 -33.85845 150.86087 7503 ft 266 kts 265°
2026-04-24 16:59 -33.86269 150.83921 8006 ft 268 kts 247°
2026-04-24 16:59 -33.87387 150.82151 8496 ft 270 kts 216°
2026-04-24 16:59 -33.91011 150.81453 9526 ft 275 kts 169°
2026-04-24 17:00 -33.92793 150.82280 10033 ft 276 kts 150°
2026-04-24 17:00 -33.96146 150.84587 11024 ft 281 kts 167°
2026-04-24 17:00 -33.98100 150.84611 11553 ft 285 kts 188°
2026-04-24 17:01 -34.02023 150.83236 12580 ft 303 kts 201°
2026-04-24 17:01 -34.04013 150.82278 13090 ft 311 kts 202°
2026-04-24 17:02 -34.08152 150.80428 14090 ft 328 kts 189°
2026-04-24 17:02 -34.10459 150.80347 14612 ft 335 kts 177°
2026-04-24 17:02 -34.12803 150.80563 15122 ft 342 kts 175°
2026-04-24 17:02 -34.15207 150.80732 15630 ft 348 kts 178°
2026-04-24 17:03 -34.20106 150.80646 16638 ft 360 kts 182°
2026-04-24 17:03 -34.22625 150.80502 17142 ft 366 kts 182°
2026-04-24 17:03 -34.25185 150.80364 17646 ft 371 kts 182°
2026-04-24 17:04 -34.27781 150.80244 18150 ft 375 kts 182°
2026-04-24 17:04 -34.33046 150.80025 19154 ft 382 kts 182°
2026-04-24 17:04 -34.35719 150.79917 19658 ft 385 kts 182°
2026-04-24 17:05 -34.38403 150.79808 20159 ft 387 kts 182°
2026-04-24 17:05 -34.41079 150.79699 20656 ft 390 kts 182°
2026-04-24 17:05 -34.46560 150.79476 21661 ft 396 kts 182°
2026-04-24 17:06 -34.49321 150.79362 22162 ft 398 kts 182°
2026-04-24 17:06 -34.54881 150.79002 23162 ft 401 kts 190°
2026-04-24 17:06 -34.57467 150.77787 23655 ft 401 kts 212°
2026-04-24 17:07 -34.58908 150.76382 23991 ft 401 kts 225°
2026-04-24 17:07 -34.61328 150.72948 24676 ft 400 kts 232°
2026-04-24 17:07 -34.64634 150.67575 25673 ft 399 kts 233°
2026-04-24 17:08 -34.67960 150.62207 26670 ft 396 kts 232°
2026-04-24 17:08 -34.69633 150.59566 27167 ft 393 kts 232°
2026-04-24 17:08 -34.71308 150.56952 27663 ft 391 kts 232°
2026-04-24 17:09 -34.74653 150.51804 28656 ft 384 kts 231°
2026-04-24 17:09 -34.77976 150.46758 29273 ft 387 kts 231°
2026-04-24 17:10 -34.79676 150.44193 29528 ft 389 kts 231°
2026-04-24 17:10 -34.84842 150.36440 30283 ft 397 kts 231°
2026-04-24 17:11 -34.90110 150.28568 31036 ft 402 kts 231°
2026-04-24 17:12 -34.99072 150.15188 31988 ft 417 kts 231°